QPF
0.04 0.04 0.03 0.02 0.00 0.00 0.00 0.00 0.00 0.00 0.00 0.00 0.00 0.00 0.00 0.00 0.00 0.00 0.00 0.00 0.01 0.01 0.00 0.01 0.01 0.01 0.01 0.01 0.00 0.01 0.01 0.00 0.01 0.01 0.01 0.01 0.02 0.02 0.03 0.03 0.03 0.03 0.01
0.03 0.03 0.02 0.01 0.01 0.00 0.00 0.00 0.00 0.00 0.00 0.00 0.00 0.00 0.00 0.00 0.00 0.00 0.00 0.00 0.00 0.01 0.00 0.00 0.01 0.00 0.00 0.01 0.01 0.02 0.01 0.01 0.00 0.01 0.01 0.01 0.02 0.03 0.02 0.03 0.03 0.02 0.01
0.01 0.01 0.01 0.02 0.01 0.00 0.00 0.00 0.00 0.00 0.00 0.00 0.00 0.00 0.00 0.00 0.00 0.00 0.00 0.00 0.00 0.00 0.00 0.01 0.01 0.01 0.00 0.01 0.01 0.03 0.04 0.01 0.00 0.01 0.01 0.01 0.01 0.02 0.02 0.03 0.03 0.02 0.02
0.00 0.00 0.01 0.03 0.03 0.01 0.00 0.00 0.00 0.00 0.00 0.00 0.00 0.00 0.00 0.00 0.00 0.00 0.00 0.00 0.00 0.00 0.00 0.00 0.01 0.01 0.01 0.01 0.00 0.01 0.03 0.02 0.01 0.01 0.01 0.01 0.01 0.01 0.02 0.02 0.03 0.03 0.02
0.00 0.00 0.01 0.02 0.02 0.02 0.01 0.00 0.00 0.00 0.00 0.00 0.00 0.00 0.00 0.00 0.00 0.00 0.00 0.00 0.01 0.01 0.01 0.00 0.00 0.00 0.00 0.01 0.00 0.00 0.01 0.02 0.02 0.01 0.00 0.00 0.00 0.01 0.01 0.01 0.03 0.03 0.02
0.01 0.01 0.02 0.02 0.02 0.01 0.01 0.00 0.00 0.00 0.01 0.00 0.00 0.00 0.00 0.00 0.00 0.00 0.00 0.00 0.01 0.01 0.02 0.01 0.00 0.00 0.01 0.01 0.01 0.01 0.01 0.01 0.00 0.00 0.00 0.00 0.01 0.01 0.01 0.01 0.02 0.01 0.01
0.02 0.03 0.02 0.02 0.02 0.01 0.01 0.00 0.01 0.00 0.00 0.00 0.00 0.00 0.00 0.00 0.00 0.00 0.00 0.00 0.00 0.01 0.01 0.00 0.00 0.01 0.01 0.01 0.01 0.01 0.00 0.00 0.00 0.00 0.00 0.00 0.01 0.01 0.00 0.00 0.01 0.01 0.01
0.02 0.02 0.01 0.01 0.02 0.02 0.01 0.01 0.01 0.00 0.00 0.00 0.00 0.00 0.00 0.00 0.00 0.00 0.00 0.00 0.00 0.00 0.00 0.00 0.00 0.00 0.00 0.01 0.00 0.00 0.00 0.00 0.01 0.00 0.00 0.00 0.00 0.00 0.00 0.00 0.00 0.00 0.00
0.02 0.02 0.01 0.01 0.02 0.02 0.01 0.01 0.01 0.01 0.00 0.00 0.00 0.00 0.00 0.00 0.00 0.00 0.00 0.00 0.00 0.00 0.00 0.00 0.00 0.00 0.00 0.00 0.00 0.01 0.00 0.00 0.00 0.00 0.00 0.00 0.01 0.00 0.00 0.00 0.01 0.01 0.01
0.03 0.02 0.02 0.02 0.01 0.02 0.02 0.02 0.02 0.01 0.00 0.00 0.00 0.00 0.00 0.00 0.00 0.00 0.00 0.00 0.00 0.00 0.00 0.00 0.00 0.00 0.00 0.00 0.00 0.00 0.00 0.00 0.00 0.00 0.00 0.00 0.00 0.01 0.00 0.00 0.01 0.02 0.01
0.02 0.03 0.03 0.02 0.01 0.01 0.01 0.01 0.01 0.01 0.00 0.00 0.00 0.00 0.00 0.00 0.00 0.00 0.00 0.00 0.00 0.00 0.00 0.00 0.00 0.00 0.00 0.00 0.00 0.00 0.00 0.00 0.00 0.01 0.01 0.00 0.00 0.01 0.01 0.01 0.01 0.02 0.01
0.03 0.03 0.02 0.01 0.01 0.01 0.01 0.01 0.01 0.01 0.01 0.00 0.00 0.00 0.00 0.00 0.00 0.00 0.00 0.00 0.00 0.00 0.00 0.00 0.00 0.00 0.00 0.00 0.00 0.00 0.00 0.00 0.00 0.00 0.01 0.00 0.00 0.00 0.01 0.01 0.01 0.01 0.01
0.02 0.02 0.01 0.01 0.00 0.00 0.01 0.01 0.01 0.01 0.01 0.01 0.01 0.00 0.00 0.00 0.00 0.00 0.00 0.00 0.00 0.00 0.00 0.00 0.00 0.00 0.00 0.00 0.00 0.00 0.00 0.00 0.00 0.01 0.01 0.01 0.00 0.00 0.00 0.00 0.00 0.00 0.00
0.01 0.02 0.01 0.01 0.00 0.00 0.00 0.01 0.01 0.01 0.01 0.01 0.01 0.00 0.00 0.00 0.00 0.00 0.00 0.00 0.00 0.00 0.00 0.00 0.00 0.00 0.00 0.00 0.00 0.00 0.00 0.00 0.00 0.01 0.01 0.01 0.00 0.00 0.00 0.00 0.00 0.00 0.01
0.02 0.01 0.01 0.00 0.00 0.00 0.00 0.01 0.01 0.01 0.01 0.01 0.01 0.01 0.00 0.00 0.00 0.00 0.00 0.00 0.00 0.00 0.00 0.00 0.00 0.00 0.00 0.00 0.00 0.00 0.00 0.00 0.00 0.00 0.00 0.00 0.00 0.00 0.00 0.00 0.00 0.00 0.01
0.02 0.02 0.01 0.01 0.01 0.00 0.00 0.01 0.02 0.02 0.01 0.01 0.01 0.01 0.01 0.01 0.00 0.00 0.00 0.00 0.00 0.00 0.00 0.00 0.00 0.00 0.00 0.00 0.00 0.00 0.00 0.00 0.00 0.00 0.00 0.00 0.00 0.00 0.00 0.00 0.00 0.00 0.01
0.01 0.01 0.01 0.01 0.01 0.01 0.01 0.01 0.01 0.02 0.02 0.01 0.01 0.01 0.01 0.01 0.01 0.00 0.00 0.00 0.00 0.00 0.00 0.00 0.00 0.00 0.00 0.00 0.00 0.00 0.00 0.00 0.00 0.00 0.00 0.00 0.00 0.00 0.00 0.00 0.00 0.00 0.00
0.01 0.01 0.01 0.01 0.02 0.01 0.01 0.01 0.01 0.01 0.01 0.01 0.02 0.01 0.01 0.01 0.02 0.00 0.00 0.00 0.00 0.00 0.00 0.00 0.00 0.00 0.00 0.00 0.00 0.00 0.00 0.00 0.00 0.00 0.00 0.00 0.00 0.00 0.00 0.00 0.00 0.00 0.00
0.01 0.01 0.01 0.01 0.01 0.01 0.01 0.01 0.01 0.01 0.01 0.01 0.01 0.01 0.01 0.01 0.01 0.00 0.00 0.00 0.01 0.01 0.01 0.01 0.01 0.00 0.00 0.00 0.00 0.00 0.00 0.00 0.00 0.00 0.00 0.00 0.00 0.00 0.00 0.00 0.00 0.00 0.00
0.00 0.00 0.01 0.01 0.02 0.01 0.01 0.01 0.01 0.01 0.01 0.01 0.01 0.01 0.01 0.02 0.02 0.01 0.01 0.01 0.01 0.01 0.01 0.01 0.01 0.01 0.00 0.00 0.00 0.00 0.00 0.00 0.00 0.00 0.00 0.00 0.00 0.00 0.00 0.00 0.00 0.00 0.00
0.00 0.00 0.00 0.01 0.01 0.01 0.01 0.01 0.01 0.01 0.02 0.01 0.02 0.01 0.01 0.02 0.03 0.03 0.02 0.02 0.01 0.01 0.01 0.01 0.01 0.01 0.00 0.00 0.00 0.00 0.00 0.00 0.00 0.00 0.00 0.00 0.00 0.00 0.00 0.00 0.00 0.00 0.00
0.00 0.00 0.00 0.00 0.01 0.01 0.01 0.01 0.01 0.02 0.02 0.02 0.02 0.02 0.02 0.02 0.03 0.05 0.05 0.03 0.03 0.02 0.02 0.01 0.01 0.01 0.00 0.00 0.00 0.00 0.00 0.00 0.00 0.00 0.00 0.00 0.00 0.00 0.00 0.00 0.00 0.00 0.00
0.00 0.00 0.00 0.00 0.01 0.01 0.02 0.02 0.02 0.02 0.02 0.02 0.01 0.01 0.02 0.02 0.02 0.03 0.04 0.04 0.03 0.02 0.02 0.01 0.01 0.00 0.00 0.00 0.00 0.00 0.00 0.00 0.00 0.00 0.00 0.00 0.00 0.00 0.00 0.00 0.00 0.00 0.00
0.00 0.00 0.00 0.00 0.01 0.01 0.02 0.02 0.02 0.02 0.02 0.02 0.01 0.01 0.02 0.02 0.01 0.01 0.02 0.03 0.03 0.02 0.02 0.02 0.01 0.01 0.00 0.00 0.00 0.00 0.00 0.00 0.00 0.00 0.00 0.00 0.00 0.00 0.00 0.00 0.00 0.00 0.00
0.00 0.00 0.00 0.00 0.00 0.01 0.02 0.02 0.02 0.03 0.03 0.02 0.03 0.03 0.03 0.02 0.02 0.01 0.02 0.02 0.03 0.04 0.02 0.01 0.01 0.01 0.00 0.00 0.00 0.00 0.00 0.00 0.00 0.00 0.00 0.00 0.00 0.00 0.00 0.00 0.00 0.00 0.00
0.00 0.00 0.00 0.00 0.00 0.00 0.01 0.01 0.02 0.02 0.03 0.04 0.04 0.04 0.05 0.07 0.06 0.04 0.02 0.02 0.02 0.03 0.02 0.02 0.01 0.01 0.00 0.00 0.00 0.00 0.00 0.00 0.00 0.00 0.00 0.00 0.00 0.00 0.00 0.00 0.00 0.00 0.00
MSLP
1015.49 1015.64 1015.82 1015.99 1016.15 1016.29 1016.42 1016.56 1016.71 1016.90 1017.12 1017.36 1017.59 1017.79 1017.93 1018.00 1018.00 1017.93 1017.83 1017.72 1017.65 1017.65 1017.73 1017.91 1018.16 1018.46 1018.77 1019.08 1019.34 1019.54 1019.69 1019.79 1019.87 1019.93 1019.98 1020.02 1020.04 1020.01 1019.92 1019.74 1019.46 1019.10 1018.68
1015.30 1015.56 1015.83 1016.06 1016.25 1016.38 1016.50 1016.62 1016.78 1016.99 1017.26 1017.56 1017.88 1018.15 1018.36 1018.46 1018.46 1018.38 1018.24 1018.10 1017.99 1017.95 1018.02 1018.18 1018.41 1018.69 1018.98 1019.24 1019.46 1019.62 1019.74 1019.83 1019.92 1020.03 1020.16 1020.30 1020.44 1020.55 1020.59 1020.54 1020.38 1020.13 1019.80
1015.10 1015.46 1015.81 1016.10 1016.31 1016.45 1016.55 1016.66 1016.82 1017.06 1017.37 1017.73 1018.11 1018.45 1018.71 1018.85 1018.87 1018.78 1018.62 1018.45 1018.32 1018.26 1018.31 1018.45 1018.66 1018.91 1019.16 1019.37 1019.53 1019.65 1019.73 1019.80 1019.91 1020.06 1020.27 1020.52 1020.78 1021.02 1021.19 1021.27 1021.23 1021.07 1020.82
1014.93 1015.35 1015.76 1016.09 1016.32 1016.47 1016.56 1016.67 1016.83 1017.08 1017.42 1017.83 1018.26 1018.66 1018.96 1019.13 1019.17 1019.09 1018.93 1018.76 1018.62 1018.56 1018.59 1018.71 1018.90 1019.12 1019.33 1019.49 1019.59 1019.66 1019.70 1019.76 1019.88 1020.07 1020.34 1020.68 1021.04 1021.40 1021.68 1021.87 1021.92 1021.85 1021.67
1014.77 1015.23 1015.67 1016.02 1016.27 1016.42 1016.52 1016.62 1016.78 1017.04 1017.41 1017.84 1018.31 1018.74 1019.08 1019.29 1019.35 1019.30 1019.16 1019.00 1018.88 1018.82 1018.85 1018.97 1019.15 1019.34 1019.50 1019.62 1019.68 1019.70 1019.71 1019.75 1019.87 1020.08 1020.39 1020.78 1021.22 1021.65 1022.03 1022.29 1022.43 1022.42 1022.30
1014.62 1015.08 1015.53 1015.90 1016.15 1016.31 1016.41 1016.51 1016.68 1016.95 1017.32 1017.77 1018.26 1018.71 1019.08 1019.32 1019.42 1019.39 1019.29 1019.17 1019.08 1019.05 1019.10 1019.22 1019.39 1019.56 1019.70 1019.79 1019.81 1019.80 1019.78 1019.80 1019.91 1020.12 1020.44 1020.85 1021.32 1021.79 1022.20 1022.52 1022.71 1022.76 1022.70
1014.47 1014.90 1015.34 1015.71 1015.97 1016.14 1016.25 1016.36 1016.53 1016.80 1017.17 1017.63 1018.12 1018.58 1018.97 1019.24 1019.37 1019.40 1019.35 1019.27 1019.22 1019.23 1019.31 1019.45 1019.63 1019.79 1019.92 1019.99 1020.00 1019.96 1019.93 1019.93 1020.01 1020.20 1020.50 1020.89 1021.35 1021.81 1022.23 1022.56 1022.78 1022.88 1022.87
1014.28 1014.67 1015.09 1015.46 1015.73 1015.92 1016.05 1016.18 1016.36 1016.63 1017.00 1017.45 1017.93 1018.39 1018.79 1019.08 1019.25 1019.33 1019.33 1019.32 1019.32 1019.38 1019.49 1019.66 1019.85 1020.02 1020.15 1020.22 1020.22 1020.18 1020.14 1020.12 1020.18 1020.34 1020.59 1020.93 1021.33 1021.75 1022.14 1022.46 1022.69 1022.82 1022.86
1014.03 1014.39 1014.79 1015.16 1015.45 1015.67 1015.83 1015.99 1016.19 1016.46 1016.82 1017.26 1017.72 1018.17 1018.57 1018.88 1019.09 1019.21 1019.28 1019.32 1019.38 1019.49 1019.64 1019.83 1020.04 1020.23 1020.37 1020.45 1020.47 1020.44 1020.40 1020.38 1020.41 1020.52 1020.72 1021.00 1021.32 1021.67 1022.00 1022.29 1022.51 1022.67 1022.75
1013.72 1014.04 1014.43 1014.81 1015.13 1015.39 1015.60 1015.80 1016.03 1016.31 1016.67 1017.08 1017.52 1017.95 1018.34 1018.66 1018.90 1019.07 1019.19 1019.29 1019.41 1019.56 1019.75 1019.97 1020.20 1020.40 1020.56 1020.66 1020.70 1020.70 1020.68 1020.66 1020.69 1020.76 1020.90 1021.10 1021.34 1021.61 1021.87 1022.11 1022.31 1022.48 1022.60
1013.33 1013.63 1014.02 1014.42 1014.78 1015.10 1015.36 1015.61 1015.88 1016.18 1016.53 1016.93 1017.34 1017.75 1018.13 1018.45 1018.71 1018.92 1019.09 1019.25 1019.42 1019.61 1019.83 1020.07 1020.31 1020.52 1020.70 1020.83 1020.90 1020.94 1020.95 1020.95 1020.98 1021.04 1021.13 1021.27 1021.43 1021.61 1021.80 1021.99 1022.17 1022.33 1022.49
1012.86 1013.16 1013.55 1013.98 1014.39 1014.77 1015.10 1015.42 1015.73 1016.06 1016.42 1016.80 1017.19 1017.58 1017.94 1018.26 1018.54 1018.77 1018.99 1019.19 1019.41 1019.63 1019.87 1020.13 1020.37 1020.60 1020.79 1020.94 1021.05 1021.12 1021.18 1021.22 1021.26 1021.32 1021.39 1021.48 1021.58 1021.70 1021.82 1021.95 1022.10 1022.26 1022.42
1012.33 1012.62 1013.02 1013.47 1013.94 1014.38 1014.80 1015.19 1015.56 1015.92 1016.29 1016.67 1017.05 1017.42 1017.76 1018.08 1018.37 1018.64 1018.89 1019.14 1019.39 1019.64 1019.89 1020.15 1020.40 1020.62 1020.82 1020.99 1021.13 1021.24 1021.34 1021.43 1021.51 1021.58 1021.65 1021.72 1021.78 1021.84 1021.91 1022.00 1022.11 1022.24 1022.41
1011.74 1012.01 1012.42 1012.90 1013.41 1013.92 1014.41 1014.88 1015.32 1015.74 1016.14 1016.53 1016.90 1017.26 1017.60 1017.92 1018.23 1018.52 1018.80 1019.08 1019.36 1019.63 1019.90 1020.15 1020.39 1020.61 1020.80 1020.98 1021.14 1021.29 1021.43 1021.56 1021.68 1021.79 1021.87 1021.94 1021.98 1022.01 1022.04 1022.08 1022.15 1022.26 1022.41
1011.11 1011.35 1011.74 1012.23 1012.78 1013.36 1013.93 1014.48 1014.99 1015.47 1015.92 1016.33 1016.72 1017.08 1017.42 1017.76 1018.08 1018.40 1018.72 1019.03 1019.33 1019.62 1019.89 1020.14 1020.36 1020.56 1020.74 1020.91 1021.08 1021.25 1021.43 1021.60 1021.76 1021.90 1022.02 1022.09 1022.13 1022.14 1022.14 1022.14 1022.18 1022.25 1022.37
1010.44 1010.64 1011.00 1011.48 1012.06 1012.69 1013.33 1013.96 1014.56 1015.11 1015.61 1016.07 1016.48 1016.87 1017.23 1017.58 1017.93 1018.27 1018.62 1018.96 1019.29 1019.60 1019.87 1020.10 1020.30 1020.48 1020.64 1020.79 1020.96 1021.14 1021.33 1021.53 1021.73 1021.90 1022.04 1022.14 1022.18 1022.19 1022.17 1022.14 1022.14 1022.17 1022.25
1009.78 1009.90 1010.21 1010.68 1011.26 1011.93 1012.63 1013.34 1014.02 1014.64 1015.21 1015.72 1016.18 1016.59 1016.99 1017.37 1017.74 1018.12 1018.50 1018.87 1019.22 1019.54 1019.81 1020.03 1020.21 1020.36 1020.49 1020.63 1020.77 1020.94 1021.14 1021.36 1021.58 1021.78 1021.94 1022.05 1022.11 1022.11 1022.08 1022.03 1021.99 1021.99 1022.02
1009.15 1009.19 1009.43 1009.86 1010.44 1011.12 1011.87 1012.64 1013.39 1014.09 1014.72 1015.29 1015.80 1016.26 1016.69 1017.10 1017.51 1017.92 1018.33 1018.73 1019.09 1019.42 1019.69 1019.90 1020.07 1020.19 1020.29 1020.40 1020.52 1020.67 1020.86 1021.08 1021.31 1021.52 1021.70 1021.83 1021.90 1021.91 1021.87 1021.81 1021.74 1021.70 1021.70
1008.61 1008.56 1008.73 1009.11 1009.66 1010.34 1011.11 1011.92 1012.72 1013.48 1014.17 1014.80 1015.36 1015.86 1016.33 1016.77 1017.22 1017.66 1018.09 1018.51 1018.89 1019.23 1019.50 1019.71 1019.85 1019.95 1020.03 1020.11 1020.21 1020.34 1020.51 1020.71 1020.93 1021.15 1021.34 1021.48 1021.56 1021.58 1021.55 1021.48 1021.40 1021.34 1021.31
1008.22 1008.09 1008.19 1008.50 1009.01 1009.67 1010.43 1011.25 1012.08 1012.87 1013.60 1014.27 1014.86 1015.40 1015.91 1016.39 1016.86 1017.32 1017.78 1018.21 1018.61 1018.95 1019.22 1019.42 1019.56 1019.65 1019.70 1019.76 1019.83 1019.94 1020.09 1020.28 1020.50 1020.71 1020.91 1021.06 1021.15 1021.19 1021.17 1021.11 1021.02 1020.95 1020.89
1008.03 1007.84 1007.86 1008.11 1008.56 1009.17 1009.90 1010.70 1011.51 1012.31 1013.05 1013.73 1014.35 1014.92 1015.45 1015.95 1016.45 1016.93 1017.40 1017.84 1018.24 1018.59 1018.86 1019.06 1019.19 1019.27 1019.32 1019.37 1019.43 1019.52 1019.65 1019.83 1020.03 1020.25 1020.44 1020.61 1020.72 1020.77 1020.77 1020.72 1020.65 1020.57 1020.50
1008.08 1007.84 1007.81 1007.99 1008.37 1008.91 1009.58 1010.31 1011.08 1011.84 1012.56 1013.24 1013.86 1014.43 1014.98 1015.50 1016.01 1016.50 1016.98 1017.43 1017.83 1018.18 1018.45 1018.65 1018.79 1018.87 1018.92 1018.96 1019.02 1019.10 1019.23 1019.40 1019.60 1019.81 1020.01 1020.19 1020.31 1020.39 1020.42 1020.39 1020.33 1020.26 1020.19
1008.37 1008.12 1008.05 1008.16 1008.46 1008.91 1009.48 1010.12 1010.81 1011.50 1012.17 1012.81 1013.42 1013.99 1014.54 1015.07 1015.59 1016.09 1016.58 1017.03 1017.43 1017.77 1018.05 1018.25 1018.39 1018.48 1018.54 1018.59 1018.65 1018.75 1018.88 1019.05 1019.24 1019.46 1019.66 1019.85 1020.00 1020.10 1020.15 1020.15 1020.11 1020.05 1019.98
1008.89 1008.64 1008.54 1008.60 1008.82 1009.16 1009.61 1010.14 1010.71 1011.31 1011.90 1012.48 1013.06 1013.62 1014.16 1014.70 1015.23 1015.75 1016.24 1016.69 1017.10 1017.44 1017.72 1017.93 1018.07 1018.18 1018.25 1018.32 1018.40 1018.51 1018.65 1018.83 1019.03 1019.24 1019.46 1019.66 1019.82 1019.94 1020.01 1020.04 1020.02 1019.97 1019.90
1009.58 1009.36 1009.25 1009.26 1009.39 1009.62 1009.94 1010.33 1010.78 1011.26 1011.76 1012.29 1012.82 1013.36 1013.90 1014.45 1015.00 1015.52 1016.03 1016.49 1016.90 1017.24 1017.52 1017.74 1017.90 1018.02 1018.12 1018.21 1018.31 1018.44 1018.60 1018.79 1019.00 1019.22 1019.44 1019.64 1019.81 1019.94 1020.03 1020.07 1020.07 1020.03 1019.95
1010.38 1010.19 1010.09 1010.06 1010.11 1010.23 1010.43 1010.68 1011.00 1011.36 1011.77 1012.23 1012.72 1013.24 1013.79 1014.36 1014.92 1015.47 1015.99 1016.47 1016.88 1017.24 1017.52 1017.75 1017.92 1018.06 1018.19 1018.31 1018.44 1018.59 1018.77 1018.97 1019.19 1019.42 1019.63 1019.83 1020.00 1020.13 1020.23 1020.27 1020.27 1020.23 1020.15
Thickness
5733 5736 5737 5737 5736 5736 5735 5734 5734 5733 5733 5730 5727 5725 5722 5723 5723 5723 5722 5722 5721 5720 5718 5716 5714 5713 5710 5707 5705 5703 5701 5698 5699 5696 5692 5692 5695 5696 5697 5699 5700 5702 5703
5728 5730 5732 5733 5734 5733 5733 5733 5732 5732 5732 5730 5728 5725 5722 5721 5721 5721 5721 5720 5720 5719 5717 5715 5713 5711 5709 5706 5705 5703 5699 5697 5697 5693 5688 5683 5684 5689 5692 5694 5696 5697 5699
5727 5727 5729 5730 5731 5730 5731 5732 5731 5731 5730 5729 5727 5724 5721 5719 5717 5717 5718 5718 5718 5717 5716 5714 5713 5711 5709 5706 5704 5703 5700 5696 5696 5695 5690 5681 5677 5681 5685 5688 5691 5692 5694
5729 5728 5728 5728 5729 5730 5731 5731 5730 5730 5729 5728 5725 5722 5717 5714 5714 5715 5716 5716 5717 5716 5715 5714 5712 5710 5709 5707 5705 5704 5701 5698 5694 5693 5692 5690 5687 5681 5679 5682 5686 5688 5689
5730 5729 5730 5729 5729 5730 5730 5729 5729 5728 5727 5726 5725 5721 5717 5716 5715 5715 5714 5715 5715 5715 5714 5713 5712 5710 5708 5707 5705 5704 5702 5699 5696 5693 5691 5689 5687 5686 5681 5677 5680 5683 5685
5730 5730 5730 5730 5728 5728 5728 5727 5726 5725 5725 5724 5723 5721 5718 5715 5714 5712 5711 5712 5712 5713 5713 5712 5711 5710 5708 5707 5705 5704 5702 5700 5698 5696 5693 5691 5688 5685 5683 5678 5676 5677 5680
5729 5727 5726 5726 5725 5725 5725 5725 5724 5723 5723 5722 5721 5721 5719 5716 5714 5713 5711 5710 5710 5710 5711 5711 5710 5709 5708 5707 5706 5704 5702 5700 5698 5696 5694 5693 5692 5690 5686 5681 5676 5675 5676
5729 5729 5728 5727 5726 5725 5724 5724 5722 5721 5721 5721 5720 5720 5719 5717 5715 5714 5712 5711 5710 5710 5710 5710 5709 5708 5707 5706 5705 5703 5701 5699 5697 5696 5694 5693 5692 5692 5689 5684 5678 5673 5671
5728 5728 5728 5727 5726 5726 5725 5724 5722 5721 5721 5720 5720 5719 5718 5717 5716 5715 5714 5712 5711 5711 5710 5709 5708 5707 5706 5705 5703 5701 5699 5698 5696 5695 5694 5692 5691 5690 5689 5686 5683 5676 5670
5729 5728 5728 5727 5727 5728 5726 5725 5724 5722 5721 5720 5719 5719 5717 5717 5716 5714 5713 5712 5711 5710 5709 5707 5706 5705 5704 5703 5701 5699 5697 5696 5694 5693 5692 5690 5689 5688 5686 5685 5683 5680 5675
5729 5729 5728 5728 5728 5727 5726 5724 5723 5721 5720 5719 5719 5718 5717 5716 5715 5714 5712 5711 5710 5709 5707 5706 5704 5703 5702 5700 5699 5696 5695 5693 5691 5690 5688 5687 5686 5684 5683 5682 5681 5678 5675
5732 5730 5729 5728 5726 5725 5724 5723 5722 5721 5720 5719 5718 5717 5716 5715 5713 5712 5711 5710 5709 5708 5706 5704 5702 5701 5699 5698 5696 5694 5692 5690 5688 5687 5685 5684 5683 5681 5680 5679 5677 5675 5674
5731 5729 5727 5726 5725 5725 5724 5723 5722 5721 5720 5719 5717 5715 5713 5712 5712 5711 5710 5708 5707 5705 5703 5702 5700 5698 5697 5695 5694 5692 5690 5688 5687 5685 5683 5681 5679 5677 5676 5675 5673 5672 5671
5729 5728 5725 5725 5725 5725 5724 5723 5722 5721 5720 5718 5715 5713 5712 5712 5711 5709 5708 5706 5705 5702 5701 5699 5698 5696 5695 5693 5691 5689 5687 5685 5684 5682 5680 5679 5677 5676 5674 5672 5670 5668 5666
5727 5728 5726 5725 5724 5724 5723 5723 5722 5720 5719 5716 5714 5713 5712 5711 5709 5707 5705 5704 5702 5701 5698 5696 5695 5694 5692 5691 5689 5687 5684 5682 5680 5678 5677 5676 5675 5674 5673 5670 5667 5665 5661
5727 5728 5727 5726 5725 5724 5723 5722 5721 5720 5718 5716 5713 5712 5710 5708 5706 5705 5702 5700 5698 5696 5695 5693 5691 5690 5690 5689 5688 5685 5682 5679 5676 5674 5672 5672 5671 5671 5669 5668 5666 5663 5659
5728 5728 5727 5727 5727 5726 5725 5722 5722 5720 5717 5715 5713 5710 5708 5706 5704 5703 5699 5697 5695 5693 5690 5689 5688 5686 5686 5686 5684 5682 5679 5676 5673 5670 5669 5668 5667 5666 5664 5662 5661 5659 5657
5728 5728 5729 5728 5728 5728 5726 5724 5721 5718 5715 5713 5711 5709 5707 5704 5702 5699 5696 5694 5692 5690 5687 5685 5684 5682 5682 5682 5680 5678 5675 5672 5669 5667 5666 5664 5662 5661 5659 5657 5654 5652 5651
5730 5730 5730 5730 5729 5727 5726 5722 5718 5716 5713 5711 5709 5708 5706 5702 5699 5695 5693 5691 5689 5686 5684 5683 5680 5678 5677 5677 5676 5673 5670 5666 5665 5663 5661 5660 5658 5657 5655 5651 5648 5645 5644
5729 5728 5728 5727 5726 5725 5724 5719 5715 5713 5711 5710 5709 5707 5704 5701 5697 5694 5691 5689 5686 5684 5681 5678 5677 5675 5673 5673 5671 5669 5665 5661 5659 5658 5657 5656 5654 5653 5650 5646 5643 5639 5639
5726 5726 5724 5721 5721 5722 5720 5715 5712 5710 5711 5709 5706 5704 5701 5698 5695 5692 5688 5685 5682 5679 5676 5673 5671 5670 5669 5668 5667 5664 5661 5658 5655 5653 5652 5651 5650 5648 5646 5643 5639 5637 5635
5721 5720 5718 5716 5716 5717 5715 5710 5708 5709 5708 5705 5702 5699 5697 5695 5692 5687 5683 5681 5677 5673 5670 5667 5665 5664 5663 5662 5661 5660 5658 5655 5651 5649 5648 5646 5645 5643 5640 5637 5635 5632 5628
5715 5714 5712 5710 5710 5710 5709 5705 5704 5704 5702 5699 5696 5694 5692 5689 5687 5683 5678 5674 5671 5668 5665 5662 5659 5658 5657 5656 5656 5655 5653 5651 5647 5645 5643 5641 5639 5636 5633 5631 5628 5625 5620
5709 5708 5706 5703 5702 5703 5703 5702 5701 5700 5697 5693 5690 5688 5685 5682 5680 5678 5675 5671 5667 5663 5660 5657 5654 5652 5651 5650 5649 5648 5646 5644 5641 5639 5637 5634 5632 5629 5626 5623 5620 5616 5612
5703 5702 5700 5697 5696 5697 5696 5697 5695 5694 5690 5686 5683 5680 5678 5675 5672 5670 5668 5666 5664 5662 5657 5654 5651 5648 5645 5646 5645 5642 5640 5637 5635 5631 5627 5624 5621 5618 5615 5613 5610 5607 5603
5697 5695 5693 5691 5690 5690 5690 5690 5690 5688 5684 5679 5676 5673 5670 5667 5665 5662 5658 5658 5657 5655 5653 5650 5647 5645 5643 5641 5639 5637 5634 5631 5628 5623 5618 5615 5612 5609 5606 5603 5601 5598 5594